This is the latest recevied weather packets stored in our database for station/object N3MFL. If no packets are shown the sender has not sent any weather packets the latest 10 day(s).
| Time | Temp. | Humidity | Pressure | Rain* | Wind** | Luminosity | Snow |
|---|---|---|---|---|---|---|---|
| 1778097353 | 15° C | 90% | 1009.3 hPa | 1.78 mm | - | 79 W/m² | - |
| 1778097050 | 15° C | 89% | 1009.4 hPa | 1.78 mm | - | 104 W/m² | - |
| 1778096748 | 15° C | 88% | 1009.6 hPa | 0 mm | - | 76 W/m² | - |
| 1778096443 | 15.56° C | 87% | 1009.7 hPa | 0 mm | - | 40 W/m² | - |
| 1778096141 | 15.56° C | 86% | 1009.6 hPa | 0 mm | - | 59 W/m² | - |
| 1778095838 | 16.11° C | 84% | 1009.8 hPa | 0 mm | - | 65 W/m² | - |
| 1778095535 | 16.67° C | 81% | 1009.6 hPa | 0 mm | - | 61 W/m² | - |
| 1778095231 | 16.67° C | 79% | 1009.7 hPa | 0 mm | - | 69 W/m² | - |
| 1778094928 | 17.22° C | 77% | 1009.7 hPa | 0 mm | - | 74 W/m² | - |
| 1778094624 | 17.22° C | 76% | 1009.7 hPa | 0 mm | - | 74 W/m² | - |
| 1778094321 | 17.22° C | 76% | 1009.5 hPa | 0 mm | - | 98 W/m² | - |
| 1778094018 | 17.22° C | 76% | 1009.7 hPa | 0 mm | - | 82 W/m² | - |
| 1778093715 | 17.22° C | 76% | 1009.9 hPa | 0 mm | - | 86 W/m² | - |
| 1778093412 | 16.67° C | 76% | 1009.7 hPa | 0 mm | - | 90 W/m² | - |
| 1778093109 | 17.22° C | 76% | 1009.8 hPa | 0 mm | - | 106 W/m² | - |
| 1778092806 | 16.67° C | 76% | 1009.9 hPa | 0 mm | - | 109 W/m² | - |
| 1778092502 | 17.22° C | 76% | 1009.8 hPa | 0 mm | - | 92 W/m² | - |
| 1778092199 | 17.22° C | 75% | 1010 hPa | 0 mm | - | 92 W/m² | - |
| 1778091896 | 17.22° C | 75% | 1010.1 hPa | 0 mm | - | 106 W/m² | - |
| 1778091593 | 17.78° C | 74% | 1010 hPa | 0 mm | - | 123 W/m² | - |
| 1778091291 | 17.78° C | 74% | 1010.1 hPa | 0 mm | - | 134 W/m² | - |
| 1778090988 | 17.78° C | 74% | 1010.1 hPa | 0 mm | - | 141 W/m² | - |
| 1778090684 | 17.78° C | 73% | 1010 hPa | 0 mm | - | 172 W/m² | - |
| 1778090381 | 18.33° C | 72% | 1010.1 hPa | 0 mm | - | 157 W/m² | - |
| 1778090078 | 18.33° C | 72% | 1010.1 hPa | 0 mm | - | 140 W/m² | - |
* Rain latest hour (hover to see other rain measurements)
** Current wind speed in m/s (hover to see current wind gust speed)